Theta_e
312 311 312 314 314 313 314 315 321 314 313 312 312 312 313 314 314 312 309 306 305 305 304 304 303 303 302 301 300 299 299 298 297 297 296 295 295 295 295 294 293 293 294 293
314 311 311 313 313 313 313 312 313 313 313 312 312 312 314 315 314 311 306 304 302 302 302 303 303 302 301 300 299 299 297 297 296 295 294 293 293 293 293 292 292 293 293 293
315 311 311 315 313 313 313 312 313 315 313 312 312 313 313 316 313 310 306 303 302 301 301 301 301 300 299 299 298 297 296 295 294 293 293 292 292 292 292 292 292 292 292 292
315 313 318 315 311 312 313 312 312 312 313 312 312 311 313 312 312 308 304 302 300 300 299 299 299 298 298 297 295 294 293 293 293 293 292 291 291 291 291 291 291 290 290 290
315 315 314 312 311 312 314 317 312 312 312 312 312 313 316 310 306 305 303 301 299 298 297 297 297 297 297 296 295 293 292 292 292 291 290 290 291 290 290 290 290 289 289 289
313 315 316 317 314 312 313 322 316 314 314 315 314 321 321 308 303 301 300 299 298 297 296 296 295 296 296 294 293 292 292 292 292 291 292 291 290 290 290 290 289 289 288 289
314 313 313 311 313 310 322 321 315 315 315 316 317 317 312 305 303 301 300 299 298 297 296 296 295 295 292 292 291 291 291 291 292 292 291 290 290 290 288 287 287 287 287 287
312 313 314 309 312 315 318 315 314 314 314 314 313 307 305 303 302 300 299 298 297 297 296 295 294 293 292 292 292 292 291 291 291 291 290 288 287 287 287 286 286 285 285 284
311 312 310 311 313 312 312 314 314 313 312 311 311 306 305 302 300 300 299 297 297 296 294 293 293 293 292 291 291 292 292 290 288 287 287 287 287 286 286 286 285 284 284 284
312 313 311 310 311 311 311 311 311 310 310 310 312 309 305 302 299 298 297 296 296 295 294 293 294 293 293 293 293 292 290 287 287 286 286 285 285 284 285 284 284 284 284 284
313 312 313 314 313 313 311 310 310 309 307 308 309 310 306 303 300 298 297 296 296 296 295 294 293 294 294 294 292 290 287 287 286 286 285 285 285 285 284 284 284 284 283 283
314 312 313 314 313 309 310 310 309 309 308 307 308 309 307 305 301 299 297 296 296 296 295 294 294 294 294 292 290 288 287 286 286 286 286 286 286 286 284 284 283 282 282 282
312 311 311 310 308 306 307 306 306 305 306 307 307 308 307 306 302 299 297 296 297 297 295 295 294 294 293 291 288 287 287 286 286 286 286 286 285 285 285 283 281 280 280 280
308 308 310 310 311 306 305 305 303 303 303 304 305 306 306 306 303 300 298 296 296 297 296 296 295 294 291 289 287 286 286 286 285 285 284 284 283 282 282 282 282 281 280 279
306 304 305 304 304 304 304 303 303 303 304 303 303 304 304 304 303 300 298 295 296 296 296 296 296 294 289 289 287 286 285 285 284 283 283 282 282 281 281 281 281 281 280 280
303 301 301 302 304 303 303 304 303 303 303 302 302 302 302 302 301 300 297 294 295 295 296 296 294 291 288 288 287 286 285 284 283 283 282 281 281 281 281 281 280 280 280 280
302 303 302 301 301 302 302 303 303 303 302 301 300 300 301 300 300 298 295 293 295 295 296 294 293 291 290 288 287 285 285 284 283 282 282 281 281 281 281 280 280 280 280 279
297 298 299 299 300 300 301 301 302 302 302 302 298 297 298 299 299 296 293 292 293 294 295 294 293 293 289 288 287 285 284 284 283 282 282 281 281 281 280 280 280 280 279 279
297 298 297 296 296 297 298 299 297 297 300 301 297 295 296 297 297 295 293 290 290 291 292 293 293 293 289 287 287 285 284 283 283 282 281 281 281 280 280 280 279 279 279 279
295 294 293 293 294 294 295 296 294 294 296 296 295 295 294 295 294 293 291 290 291 291 292 292 291 291 289 287 286 285 284 283 282 281 281 280 281 281 280 279 279 279 279 279
294 294 294 293 292 292 291 293 294 292 292 292 293 293 292 291 291 291 289 289 290 290 291 290 291 290 287 286 285 285 284 283 282 281 280 280 280 280 279 279 279 278 278 278
292 293 292 292 292 292 291 290 290 292 292 291 290 290 290 289 289 288 289 290 291 291 290 291 291 291 289 285 285 285 284 283 282 281 280 280 280 280 279 279 279 279 278 278
290 290 290 290 291 291 291 290 289 288 288 290 291 290 289 290 290 288 289 291 291 290 290 291 291 291 290 286 284 284 284 283 282 281 280 280 280 279 279 279 279 279 278 278
289 288 288 288 289 289 289 287 288 288 287 287 287 288 289 289 289 289 289 289 287 286 287 287 287 287 286 285 284 284 283 282 282 281 280 280 280 279 279 278 278 278 278 277
286 285 286 287 287 287 285 284 286 288 288 288 287 286 286 286 287 288 288 288 287 286 286 286 286 286 286 284 285 285 284 283 282 282 281 280 280 279 279 278 278 278 278 277
285 285 284 284 284 284 283 284 285 286 286 286 287 287 286 285 285 285 285 285 286 286 288 286 285 285 285 284 284 284 284 283 282 281 281 280 280 279 279 278 278 277 277 277
283 283 284 284 283 282 282 284 284 285 285 285 285 286 286 286 285 285 285 285 284 285 285 286 286 285 285 285 284 283 283 283 282 281 280 280 279 279 279 278 277 277 278 277
Wind_Speed
1 1 2 4 7 13 8 8 4 1 4 10 9 4 2 1 2 2 2 1 1 1 1 3 4 6 7 8 8 8 9 8 8 8 10 11 11 13 13 15 15 12 12 13
2 2 6 8 10 9 13 14 14 13 13 10 10 1 2 2 3 5 3 2 2 1 1 2 4 4 4 5 5 6 7 6 8 9 12 13 13 14 16 16 16 19 21 22
1 1 5 9 16 16 10 8 14 10 7 5 0 2 4 3 4 4 4 3 3 2 2 2 3 2 3 4 4 6 6 7 9 10 14 13 14 18 19 20 21 23 23 23
2 2 3 2 3 3 17 9 14 10 9 5 6 1 2 3 3 3 3 3 3 3 3 3 3 3 4 4 6 7 8 9 10 10 15 13 17 19 19 20 22 22 22 22
3 4 9 6 4 4 7 5 16 14 11 8 2 3 5 5 1 1 2 4 4 3 4 3 3 3 5 5 7 8 10 12 12 13 16 17 18 19 19 20 20 20 19 17
2 3 3 4 4 2 4 3 4 5 5 5 7 4 4 8 5 5 5 5 6 5 4 4 3 4 6 7 9 10 11 13 13 15 15 15 16 17 17 17 17 15 15 13
6 4 6 5 7 1 3 4 4 1 2 5 7 3 9 9 7 6 6 6 6 6 5 4 5 7 9 12 12 10 13 14 14 14 15 14 13 11 11 10 9 10 11 11
5 4 7 4 4 4 4 3 3 4 2 3 3 6 8 7 8 7 7 8 8 8 7 6 7 9 10 12 13 14 14 15 12 8 7 8 7 7 7 7 7 6 6 6
7 4 3 2 2 3 1 4 7 4 1 2 6 7 9 8 7 7 8 8 9 10 9 8 8 10 12 13 14 13 10 9 8 8 7 6 6 5 5 4 4 4 4 4
3 5 11 8 7 1 3 3 4 3 3 2 5 7 9 9 8 8 10 10 11 13 11 10 10 10 12 11 10 11 10 9 9 8 7 6 5 4 4 3 3 3 3 3
10 10 5 6 7 6 2 4 2 4 5 4 5 7 10 9 9 11 12 12 13 13 13 13 12 11 11 10 10 10 10 9 8 7 6 6 5 4 4 3 3 2 3 3
5 3 5 6 7 2 2 3 3 5 5 5 6 7 10 9 12 13 15 15 14 14 14 15 14 12 11 10 10 10 9 8 7 7 6 5 5 5 5 5 4 3 2 2
9 4 2 1 1 3 4 5 4 4 5 5 5 8 11 9 14 15 15 17 17 16 16 15 14 14 12 12 11 10 9 8 7 7 6 5 4 4 3 3 3 3 3 3
3 2 6 6 2 1 5 6 5 6 6 6 6 7 10 12 14 17 18 18 17 17 18 17 16 16 15 14 14 12 9 9 7 7 7 6 5 4 3 3 4 4 6 5
6 3 4 3 5 4 5 5 6 7 6 6 7 8 11 12 13 16 17 18 19 18 18 18 17 15 16 17 16 14 12 10 9 8 7 6 6 5 4 4 4 5 5 6
5 3 4 6 7 6 6 6 7 8 7 6 7 9 11 13 13 15 17 21 22 20 20 20 19 17 19 19 18 15 14 12 11 9 8 7 7 6 5 5 6 6 6 7
3 4 2 4 5 7 8 8 8 9 8 8 9 9 10 12 12 14 17 21 23 20 22 20 21 22 21 22 20 16 14 14 12 11 10 9 8 8 7 7 7 7 8 8
4 4 4 6 7 8 9 9 11 12 10 12 10 9 10 12 11 14 16 19 20 21 25 23 22 24 22 22 21 18 17 15 16 14 12 11 10 9 8 8 8 8 9 8
2 3 3 5 7 7 8 8 11 13 12 10 9 10 12 12 11 12 16 18 18 19 26 25 23 23 24 24 23 21 19 17 16 15 14 11 10 10 10 10 9 9 9 9
1 2 3 5 5 5 7 8 10 9 7 5 6 7 8 9 10 12 16 17 20 18 20 25 22 22 24 24 24 23 21 19 18 15 14 13 12 12 12 11 11 10 10 11
2 2 3 3 4 4 6 8 8 7 7 4 3 4 5 6 9 12 11 9 15 19 18 22 24 25 24 25 24 25 23 21 19 18 17 16 14 14 14 13 12 12 12 12
3 3 5 6 6 5 7 8 8 8 7 6 4 4 3 4 6 10 13 12 11 14 22 25 27 27 29 23 26 27 26 23 21 20 19 18 17 16 16 14 14 13 13 14
2 3 4 5 6 6 5 8 8 8 7 7 6 5 6 7 8 7 5 9 16 16 17 23 25 26 26 23 27 28 27 26 25 23 22 20 19 18 16 15 15 14 14 15
1 2 3 5 4 5 5 9 9 8 8 7 6 6 6 7 10 12 14 12 9 12 18 20 21 22 24 26 27 28 27 26 25 24 22 20 19 18 17 17 16 16 16 16
1 2 2 4 4 4 6 8 9 8 9 8 8 7 6 5 7 8 9 9 13 12 14 17 17 19 24 24 28 28 28 28 28 26 24 22 20 18 18 17 17 17 16 17
2 2 2 2 3 3 5 6 6 5 7 9 9 10 10 9 8 8 8 9 9 12 14 15 16 18 22 23 26 27 29 28 26 26 25 22 20 18 18 18 18 16 17 18
3 3 3 3 3 3 4 5 5 6 6 7 9 10 12 12 10 9 7 8 8 9 13 15 14 16 22 24 25 26 26 26 25 25 24 22 20 18 17 17 17 17 18 19
Wind_Direction
334 41 199 234 215 206 203 217 221 68 227 162 171 280 277 59 153 195 220 226 342 16 47 37 32 26 18 17 22 30 36 35 32 51 53 51 51 59 58 56 56 58 70 79
246 229 248 255 243 225 221 232 245 262 274 279 276 6 282 252 215 223 224 210 212 183 95 56 41 29 23 7 24 42 49 49 53 56 64 62 59 62 68 73 77 81 74 74
250 227 280 262 234 216 210 214 218 229 247 183 151 259 320 273 224 231 226 195 192 178 126 88 79 59 49 28 31 57 63 56 62 63 68 65 77 82 82 85 91 89 90 88
298 262 244 79 87 203 218 219 219 233 241 226 270 318 223 224 215 217 194 184 186 171 142 115 97 83 82 71 67 69 69 65 68 73 78 77 87 91 92 93 92 90 88 86
257 239 297 232 191 180 170 225 224 232 245 258 256 159 210 180 171 166 180 173 162 146 136 112 100 103 100 94 82 77 78 78 81 83 89 94 93 98 101 99 93 87 82 79
82 272 265 57 127 201 209 151 106 203 224 234 161 226 138 162 155 157 163 167 171 160 139 131 108 116 116 103 95 89 93 94 93 95 99 104 109 106 105 102 97 87 79 75
227 264 295 130 133 356 235 104 94 116 241 205 206 11 117 138 152 166 165 163 160 153 139 125 122 122 122 111 101 107 106 107 104 106 108 107 105 98 91 94 95 89 84 78
208 225 253 130 137 227 56 89 21 341 297 244 238 132 146 155 158 161 159 164 169 154 136 131 135 138 131 119 125 119 113 107 103 102 103 104 100 103 101 97 91 87 83 76
211 215 94 152 358 32 51 353 350 341 34 239 171 182 177 171 171 171 166 174 168 150 147 145 144 145 140 142 135 125 122 118 118 114 110 108 108 100 87 72 66 59 54 52
200 234 236 229 205 237 89 60 4 325 289 244 221 190 180 177 175 168 176 179 173 159 158 152 154 154 151 149 144 141 140 136 132 127 121 110 95 81 74 60 57 54 51 42
244 262 256 242 206 179 166 106 307 276 267 258 242 199 192 188 183 179 177 183 182 173 166 162 163 165 165 162 158 155 150 145 139 134 132 119 99 84 82 70 81 60 54 27
242 4 254 58 79 87 280 350 309 287 267 245 243 222 197 194 191 182 183 182 178 177 170 168 170 175 174 171 171 169 162 158 155 151 151 145 132 108 89 94 73 54 32 20
270 32 318 68 354 49 350 335 318 300 279 267 232 233 203 198 190 187 184 185 181 180 173 175 178 182 181 176 180 182 175 168 166 165 167 170 180 197 197 292 299 294 303 297
230 236 254 225 212 283 302 298 295 279 267 253 249 224 212 207 187 192 191 189 181 181 176 181 187 191 185 182 180 186 187 184 181 187 190 194 204 211 226 247 273 277 299 282
210 221 309 318 283 288 309 293 279 270 259 244 236 224 215 207 202 201 193 185 181 182 183 183 192 195 190 188 187 190 191 195 191 197 197 198 205 212 225 241 261 272 276 284
176 236 259 266 282 290 289 281 268 271 266 256 244 233 224 219 213 204 191 183 178 189 191 188 192 193 197 197 195 197 199 202 196 200 204 202 214 220 233 246 258 266 271 276
218 236 246 268 272 285 287 291 284 281 276 260 249 240 221 215 210 202 194 195 196 195 196 196 196 203 203 203 201 201 200 208 198 200 206 213 221 228 236 242 252 260 269 271
269 300 286 285 291 295 297 299 292 283 272 265 243 220 213 211 210 203 195 193 196 205 210 210 210 211 208 206 207 206 206 208 205 209 214 217 223 229 235 242 251 260 271 271
275 300 316 308 303 300 299 301 300 295 282 263 228 215 219 218 216 206 192 189 194 201 212 212 219 217 212 211 210 211 212 207 212 217 219 220 224 231 235 244 252 258 266 270
57 19 340 325 324 327 320 320 317 313 315 272 232 218 218 214 203 194 195 203 208 214 213 213 213 216 218 217 213 215 215 215 216 217 222 223 227 230 239 244 246 254 260 265
62 20 3 348 333 334 343 339 340 347 349 348 274 248 243 230 217 217 207 218 228 224 220 207 211 209 215 221 213 216 217 218 220 221 226 225 229 233 240 244 251 257 261 265
29 18 7 1 1 3 6 360 355 352 352 344 330 304 265 250 240 236 238 237 246 239 228 224 221 217 212 214 220 220 219 220 224 226 229 230 231 237 241 246 252 259 265 271
30 13 1 2 355 346 354 10 0 357 350 344 329 305 276 272 257 231 251 270 252 243 237 230 226 222 221 207 214 221 223 223 224 227 231 233 236 240 244 250 259 263 267 274
80 22 1 352 343 2 5 355 351 352 349 347 339 323 304 294 286 270 262 257 271 249 233 233 226 227 207 205 214 222 225 228 230 232 236 238 239 243 247 253 257 265 270 276
61 324 332 344 347 2 345 340 338 351 355 357 359 356 337 301 273 296 297 282 251 250 235 235 229 223 209 208 219 224 228 231 233 234 235 237 241 246 253 257 263 268 276 281
233 271 300 305 306 320 326 332 330 337 340 338 340 347 342 336 321 306 292 286 273 252 241 237 233 218 212 215 224 228 232 233 234 235 236 238 240 246 255 262 267 272 280 284
236 243 263 274 255 307 319 322 324 329 331 329 321 326 327 325 322 320 304 290 279 267 250 245 238 226 218 220 228 233 235 236 238 239 239 239 241 248 255 264 270 278 285 288